一网星座-0695 (ONEWEB-0695)

导读

ONEWEB-0695是英国OneWeb公司的低轨宽带卫星,于2024年10月20日由SpaceX猎鹰9号火箭发射升空,属于OneWeb星座组网的最后一批卫星之一。该卫星单颗重约147.5公斤,配备Ku波段天线,运行于低轨轨道,将助力OneWeb实现全球覆盖,提升星座弹性冗余性,为企业及政府客户提供更稳定的全球宽带互联服务,设计服役期满后会安全脱轨减少空间碎片影响。

Basic Information
目录编号:
61602
目录名称:
ONEWEB-0695
国际标识:
2024-188J
轨道中心:
EARTH
卫星名称:
一网星座-0695
卫星全名:
一网星座-0695 (ONEWEB-0695)
卫星状态:
在轨 (已飞行602 天)
发射日期:
2024-10-20 UTC
国别 :
英国 (GB)
星等 :
--
Orbit Information
数据来源 国际轨道数据 AOE轨道数据
星历时间 2026-06-14T15:02:13+0800
7小时前
查看轨道信息
2026-06-13T03:00:00+0800
1天前
查看轨道信息
半长轴 7595.828km 7595.84km
偏心率 0.0002023 0.0001873
轨道倾角 87.889° 87.889°
近地点辐角 100.452° 101.110°
升交点赤经 21.653° 21.952°
平近点角 259.684° 14.167°
近地点 1216.154km 1216.28km
远地点 1219.228km 1219.126km
周期 109.805分钟 109.805分钟
每日圈数 13.114148 13.114117
Detailed Information
卫星平台:
0695
平衡模式:
三轴稳定
覆盖范围:
全球
运营商:
一网卫星公司
运营商所在国:
英国
制造商(研发单位):
空客防务与航天公司
制造商所在国:
法国大都会
使用方式:
暂无
Satellite Introduction
OneWeb 计划是一项全球卫星互联网项目,旨在通过发射低轨道卫星,为全球偏远和无法接入互联网的地区提供高速网络连接。OneWeb 的目标是打造一个由数百颗卫星组成的网络,帮助缩小全球数字鸿沟,推动教育、医疗和经济发展。
2D Orbit Map
3D Orbit Map
Orbit Altitude Analysis Chart
Orbit Inclination Analysis Chart
Orbit Comprehensive Analysis Chart
View Comprehensive Chart